Location: Unspecified
(41.1850°N, 73.2650°W)
Time: 21:14:25
(UTC+00:00)

IRS-1C - Pass Details

Date: 14 December 2025
Orbit: 813 x 814 km, 99.0° (Epoch: 12 January)

Event Time Altitude Azimuth Distance (km) Brightness Sun altitude
Rises 22:25:28 0° 161° (SSE) 3,324 7.3 -11.1°
Reaches altitude 10° 22:27:48 10° 160° (SSE) 2,396 6.6 -11.5°
Maximum altitude 22:33:05 81° 75° (ENE) 830 4.1 -12.4°
Drops below altitude 10° 22:38:26 10° 348° (NNW) 2,411 6.5 -13.4°
Sets 22:40:47 0° 348° (NNW) 3,347 7.2 -13.8°
